EWG1BL LROP-EPKK

Flight info

Callsign EWG1BL
Flight time 1h 13m
Altitude 34000
Route SOKRU1K/08L SOKRU DCT LARMU DCT KENIN DCT LENOV
Aircraft A320/M-SDE3FGHIRWY/LB1

Departure

Time 2026-05-05 19:26
Airport Bucharest Henri Coandă International Airport (LROP)

Arrival

Time 2026-05-05 20:39
Airport Kraków John Paul II International Airport (EPKK)
Time Latitude Longitude Altitude Speed Heading
2026-05-05 19:06 44.57014 26.08025 315 ft 0 kts 353°
2026-05-05 19:16 44.57005 26.08027 315 ft 3 kts 353°
2026-05-05 19:16 44.56985 26.08030 314 ft 3 kts 353°
2026-05-05 19:16 44.56965 26.08033 313 ft 3 kts 352°
2026-05-05 19:17 44.56945 26.08037 313 ft 3 kts
2026-05-05 19:17 44.56931 26.08034 311 ft 3 kts 59°
2026-05-05 19:17 44.56928 26.08024 313 ft 2 kts 84°
2026-05-05 19:17 44.56926 26.08002 312 ft 1 kts 84°
2026-05-05 19:18 44.56926 26.07999 312 ft 0 kts 84°
2026-05-05 19:21 44.56928 26.08026 313 ft 8 kts 84°
2026-05-05 19:21 44.56934 26.08107 314 ft 8 kts 84°
2026-05-05 19:21 44.56944 26.08240 314 ft 18 kts 84°
2026-05-05 19:22 44.56928 26.08390 314 ft 16 kts 136°
2026-05-05 19:22 44.56917 26.08528 314 ft 16 kts 41°
2026-05-05 19:22 44.57022 26.08533 316 ft 14 kts 354°
2026-05-05 19:22 44.57127 26.08519 317 ft 15 kts 354°
2026-05-05 19:23 44.57229 26.08504 318 ft 17 kts 354°
2026-05-05 19:23 44.57336 26.08489 319 ft 14 kts 354°
2026-05-05 19:23 44.57427 26.08475 318 ft 12 kts 354°
2026-05-05 19:23 44.57502 26.08465 320 ft 10 kts 354°
2026-05-05 19:24 44.57511 26.08463 321 ft 0 kts 354°
2026-05-05 19:24 44.57576 26.08454 322 ft 17 kts 354°
2026-05-05 19:24 44.57640 26.08457 323 ft 13 kts 23°
2026-05-05 19:25 44.57671 26.08559 323 ft 11 kts 83°
2026-05-05 19:25 44.57692 26.08855 319 ft 65 kts 84°
2026-05-05 19:25 44.57764 26.09797 319 ft 126 kts 84°
2026-05-05 19:25 44.57874 26.11257 316 ft 173 kts 84°
2026-05-05 19:26 44.58025 26.13016 698 ft 187 kts 84°
2026-05-05 19:26 44.58197 26.14862 1313 ft 194 kts 84°
2026-05-05 19:26 44.58373 26.16762 1890 ft 201 kts 85°
2026-05-05 19:26 44.58554 26.18788 2283 ft 216 kts 85°
2026-05-05 19:27 44.58931 26.20804 2993 ft 215 kts 59°
2026-05-05 19:27 44.59993 26.22388 3385 ft 236 kts 28°
2026-05-05 19:27 44.61622 26.23040 3780 ft 256 kts 359°
2026-05-05 19:27 44.63376 26.22481 4526 ft 263 kts 332°
2026-05-05 19:28 44.64743 26.20784 5403 ft 267 kts 304°
2026-05-05 19:28 44.65532 26.18406 6313 ft 271 kts 295°
2026-05-05 19:28 44.66377 26.16047 7224 ft 270 kts 301°
2026-05-05 19:28 44.67326 26.13759 8078 ft 272 kts 303°
2026-05-05 19:29 44.68312 26.11468 8909 ft 276 kts 304°
2026-05-05 19:29 44.69307 26.09135 9736 ft 279 kts 304°
2026-05-05 19:29 44.70303 26.06758 10371 ft 290 kts 304°
2026-05-05 19:29 44.71352 26.04214 10614 ft 313 kts 303°
2026-05-05 19:30 44.72458 26.01481 11091 ft 326 kts 303°
2026-05-05 19:30 44.73581 25.98669 11746 ft 332 kts 303°
2026-05-05 19:30 44.74718 25.95803 12446 ft 338 kts 303°
2026-05-05 19:30 44.75852 25.92932 13120 ft 342 kts 303°
2026-05-05 19:31 44.77016 25.89980 13795 ft 347 kts 303°
2026-05-05 19:31 44.78194 25.86987 14374 ft 352 kts 302°
2026-05-05 19:31 44.79388 25.83946 14962 ft 356 kts 302°
2026-05-05 19:31 44.80595 25.80875 15584 ft 359 kts 302°
2026-05-05 19:32 44.81812 25.77786 16206 ft 362 kts 302°
2026-05-05 19:32 44.83040 25.74668 16847 ft 365 kts 301°
2026-05-05 19:32 44.84276 25.71520 17481 ft 368 kts 301°
2026-05-05 19:32 44.85517 25.68354 18096 ft 371 kts 301°
2026-05-05 19:33 44.86770 25.65157 18652 ft 374 kts 301°
2026-05-05 19:33 44.87606 25.63028 19007 ft 375 kts 301°
2026-05-05 19:33 44.88872 25.59795 19552 ft 378 kts 301°
2026-05-05 19:33 44.90147 25.56533 20059 ft 380 kts 301°
2026-05-05 19:34 44.91427 25.53252 20601 ft 382 kts 301°
2026-05-05 19:34 44.92712 25.49955 21119 ft 385 kts 301°
2026-05-05 19:34 44.94003 25.46639 21641 ft 387 kts 301°
2026-05-05 19:35 44.96609 25.39931 22627 ft 392 kts 301°
2026-05-05 19:35 44.97948 25.36564 23120 ft 393 kts 304°
2026-05-05 19:35 44.99610 25.33493 23608 ft 393 kts 315°
2026-05-05 19:35 45.01637 25.30895 23984 ft 394 kts 325°
2026-05-05 19:36 45.03913 25.28735 24377 ft 394 kts 328°
2026-05-05 19:36 45.06213 25.26616 24808 ft 395 kts 328°
2026-05-05 19:36 45.08521 25.24483 25227 ft 396 kts 328°
2026-05-05 19:36 45.10834 25.22338 25635 ft 398 kts 328°
2026-05-05 19:37 45.13144 25.20188 26029 ft 399 kts 328°
2026-05-05 19:37 45.15467 25.18019 26414 ft 401 kts 328°
2026-05-05 19:37 45.17805 25.15834 26786 ft 403 kts 328°
2026-05-05 19:37 45.20149 25.13644 27152 ft 405 kts 328°
2026-05-05 19:38 45.22476 25.11474 27521 ft 407 kts 328°
2026-05-05 19:38 45.24845 25.09268 27897 ft 408 kts 328°
2026-05-05 19:38 45.27223 25.07049 28262 ft 410 kts 328°
2026-05-05 19:38 45.29603 25.04821 28622 ft 412 kts 328°
2026-05-05 19:39 45.32008 25.02569 28972 ft 413 kts 328°
2026-05-05 19:39 45.34408 25.00317 29334 ft 415 kts 328°
2026-05-05 19:39 45.36828 24.98043 29675 ft 417 kts 328°
2026-05-05 19:39 45.39249 24.95762 30010 ft 419 kts 328°
2026-05-05 19:40 45.41679 24.93471 30290 ft 420 kts 328°
2026-05-05 19:40 45.44122 24.91167 30572 ft 422 kts 328°
2026-05-05 19:40 45.46582 24.88848 30842 ft 424 kts 328°
2026-05-05 19:40 45.49039 24.86531 31114 ft 426 kts 328°
2026-05-05 19:41 45.51519 24.84192 31338 ft 427 kts 328°
2026-05-05 19:41 45.54001 24.81851 31688 ft 427 kts 328°
2026-05-05 19:41 45.56473 24.79510 32065 ft 425 kts 328°
2026-05-05 19:41 45.58933 24.77172 32447 ft 424 kts 328°
2026-05-05 19:42 45.61380 24.74845 32856 ft 422 kts 328°
2026-05-05 19:42 45.63821 24.72523 33239 ft 421 kts 328°
2026-05-05 19:42 45.66250 24.70207 33613 ft 419 kts 327°
2026-05-05 19:42 45.68677 24.67892 33947 ft 419 kts 328°
2026-05-05 19:43 45.71083 24.65597 34007 ft 412 kts 328°
2026-05-05 19:43 45.75787 24.61112 34013 ft 407 kts 327°
2026-05-05 19:44 45.80496 24.56604 34002 ft 406 kts 327°
2026-05-05 19:44 45.85194 24.52099 34000 ft 406 kts 327°
2026-05-05 19:45 45.89893 24.47596 33989 ft 406 kts 327°
2026-05-05 19:45 45.94584 24.43081 33985 ft 406 kts 327°
2026-05-05 19:46 45.99268 24.38563 33964 ft 405 kts 327°
2026-05-05 19:46 46.03951 24.34027 33963 ft 406 kts 327°
2026-05-05 19:47 46.08637 24.29481 33963 ft 406 kts 327°
2026-05-05 19:47 46.13304 24.24961 33962 ft 407 kts 327°
2026-05-05 19:48 46.17989 24.20401 33961 ft 407 kts 327°
2026-05-05 19:48 46.22687 24.15825 33962 ft 407 kts 327°
2026-05-05 19:49 46.27368 24.11245 33960 ft 407 kts 327°
2026-05-05 19:49 46.32063 24.06645 33962 ft 407 kts 327°
2026-05-05 19:50 46.36759 24.02046 33954 ft 407 kts 327°
2026-05-05 19:50 46.41446 23.97441 33956 ft 407 kts 327°
2026-05-05 19:51 46.46137 23.92817 33956 ft 408 kts 326°
2026-05-05 19:51 46.50828 23.88185 33958 ft 408 kts 326°
2026-05-05 19:52 46.55522 23.83537 33963 ft 409 kts 326°
2026-05-05 19:52 46.60222 23.78876 33964 ft 409 kts 326°
2026-05-05 19:53 46.64928 23.74208 33968 ft 409 kts 326°
2026-05-05 19:53 46.69625 23.69528 33957 ft 410 kts 326°
2026-05-05 19:54 46.74339 23.64824 33958 ft 410 kts 326°
2026-05-05 19:54 46.79050 23.60122 33960 ft 410 kts 326°
2026-05-05 19:55 46.83723 23.55440 33965 ft 411 kts 326°
2026-05-05 19:55 46.88435 23.50698 33965 ft 411 kts 326°
2026-05-05 19:56 46.93144 23.45949 33958 ft 411 kts 325°
2026-05-05 19:56 46.97865 23.41191 33960 ft 412 kts 325°
2026-05-05 19:57 47.02584 23.36427 33953 ft 412 kts 325°
2026-05-05 19:57 47.07282 23.31670 33954 ft 412 kts 325°
2026-05-05 19:58 47.11998 23.26888 33959 ft 413 kts 325°
2026-05-05 19:58 47.16731 23.22076 33946 ft 413 kts 325°
2026-05-05 19:59 47.21453 23.17237 33946 ft 414 kts 325°
2026-05-05 19:59 47.26186 23.12387 33943 ft 415 kts 324°
2026-05-05 20:00 47.30855 23.07461 33942 ft 415 kts 324°
2026-05-05 20:00 47.35555 23.02426 33944 ft 415 kts 324°
2026-05-05 20:01 47.40203 22.97459 33936 ft 416 kts 323°
2026-05-05 20:01 47.44906 22.92446 33932 ft 417 kts 324°
2026-05-05 20:02 47.49606 22.87428 33931 ft 417 kts 323°
2026-05-05 20:02 47.54301 22.82391 33930 ft 417 kts 323°
2026-05-05 20:03 47.59002 22.77341 33929 ft 417 kts 323°
2026-05-05 20:03 47.63708 22.72271 33922 ft 419 kts 323°
2026-05-05 20:04 47.68433 22.67172 33922 ft 420 kts 323°
2026-05-05 20:04 47.73158 22.62068 33926 ft 420 kts 323°
2026-05-05 20:05 47.77849 22.56968 33918 ft 420 kts 323°
2026-05-05 20:05 47.82600 22.51792 33909 ft 420 kts 323°
2026-05-05 20:06 47.87287 22.46694 33913 ft 420 kts 322°
2026-05-05 20:06 47.92011 22.41540 33910 ft 421 kts 322°
2026-05-05 20:07 47.96729 22.36379 33901 ft 421 kts 322°
2026-05-05 20:07 48.01446 22.31201 33904 ft 421 kts 322°
2026-05-05 20:08 48.06166 22.26014 33896 ft 421 kts 322°
2026-05-05 20:08 48.10885 22.20804 33899 ft 422 kts 322°
2026-05-05 20:09 48.15603 22.15582 33896 ft 422 kts 322°
2026-05-05 20:09 48.20331 22.10349 33894 ft 422 kts 322°
2026-05-05 20:10 48.25052 22.05116 33890 ft 422 kts 322°
2026-05-05 20:10 48.29760 21.99881 33890 ft 422 kts 321°
2026-05-05 20:11 48.34487 21.94593 33887 ft 423 kts 321°
2026-05-05 20:11 48.39406 21.89733 33878 ft 425 kts 327°
2026-05-05 20:12 48.44460 21.85090 33876 ft 425 kts 327°
2026-05-05 20:12 48.49513 21.80432 33878 ft 426 kts 327°
2026-05-05 20:13 48.54560 21.75756 33877 ft 426 kts 326°
2026-05-05 20:13 48.59620 21.71057 33888 ft 427 kts 326°
2026-05-05 20:14 48.64642 21.66382 33889 ft 427 kts 326°
2026-05-05 20:14 48.69688 21.61665 33666 ft 422 kts 326°
2026-05-05 20:14 48.72168 21.59351 33396 ft 417 kts 326°
2026-05-05 20:15 48.74621 21.57061 33018 ft 411 kts 326°
2026-05-05 20:15 48.77051 21.54788 32530 ft 408 kts 326°
2026-05-05 20:15 48.79445 21.52544 32047 ft 405 kts 326°
2026-05-05 20:15 48.81848 21.50286 31564 ft 402 kts 326°
2026-05-05 20:16 48.84220 21.48057 31082 ft 400 kts 327°
2026-05-05 20:16 48.86576 21.45841 30621 ft 398 kts 326°
2026-05-05 20:16 48.88927 21.43629 30159 ft 395 kts 326°
2026-05-05 20:16 48.91254 21.41434 29666 ft 392 kts 326°
2026-05-05 20:17 48.93554 21.39261 29226 ft 388 kts 326°
2026-05-05 20:17 48.95835 21.37106 28789 ft 383 kts 326°
2026-05-05 20:17 48.98086 21.34977 28369 ft 379 kts 326°
2026-05-05 20:17 49.00312 21.32870 27953 ft 375 kts 326°
2026-05-05 20:18 49.01775 21.31483 27666 ft 372 kts 326°
2026-05-05 20:18 49.03964 21.29408 27262 ft 368 kts 326°
2026-05-05 20:18 49.06129 21.27353 26848 ft 365 kts 326°
2026-05-05 20:18 49.08279 21.25308 26429 ft 362 kts 326°
2026-05-05 20:19 49.10404 21.23284 26016 ft 359 kts 326°
2026-05-05 20:19 49.12520 21.21269 25594 ft 357 kts 326°
2026-05-05 20:19 49.14622 21.19265 25161 ft 356 kts 326°
2026-05-05 20:19 49.16723 21.17258 24738 ft 354 kts 326°
2026-05-05 20:20 49.18811 21.15260 24279 ft 354 kts 326°
2026-05-05 20:20 49.20892 21.13271 23832 ft 353 kts 326°
2026-05-05 20:20 49.22977 21.11281 23373 ft 353 kts 326°
2026-05-05 20:20 49.25061 21.09288 22873 ft 352 kts 326°
2026-05-05 20:21 49.27128 21.07308 22436 ft 350 kts 326°
2026-05-05 20:21 49.29184 21.05330 22003 ft 348 kts 326°
2026-05-05 20:21 49.31228 21.03360 21580 ft 346 kts 325°
2026-05-05 20:21 49.33197 21.01296 21175 ft 341 kts 318°
2026-05-05 20:22 49.34884 20.98777 20771 ft 337 kts 307°
2026-05-05 20:22 49.36382 20.96027 20375 ft 335 kts 307°
2026-05-05 20:22 49.37876 20.93300 19987 ft 334 kts 307°
2026-05-05 20:22 49.39369 20.90580 19590 ft 334 kts 307°
2026-05-05 20:23 49.40864 20.87855 19196 ft 333 kts 307°
2026-05-05 20:23 49.42339 20.85158 18815 ft 333 kts 307°
2026-05-05 20:23 49.43851 20.82392 18423 ft 333 kts 307°
2026-05-05 20:23 49.45318 20.79707 18018 ft 334 kts 307°
2026-05-05 20:24 49.46807 20.76979 17611 ft 333 kts 307°
2026-05-05 20:24 49.48294 20.74251 17229 ft 332 kts 306°
2026-05-05 20:24 49.49775 20.71531 16855 ft 331 kts 306°
2026-05-05 20:24 49.51256 20.68806 16481 ft 331 kts 306°
2026-05-05 20:25 49.52729 20.66092 16108 ft 331 kts 306°
2026-05-05 20:25 49.54202 20.63374 15735 ft 330 kts 306°
2026-05-05 20:25 49.55663 20.60674 15383 ft 329 kts 306°
2026-05-05 20:25 49.57133 20.57956 15004 ft 328 kts 306°
2026-05-05 20:26 49.58585 20.55272 14747 ft 324 kts 306°
2026-05-05 20:26 49.60023 20.52614 14464 ft 321 kts 306°
2026-05-05 20:26 49.61448 20.49976 14161 ft 319 kts 306°
2026-05-05 20:26 49.62863 20.47349 13661 ft 323 kts 306°
2026-05-05 20:27 49.64321 20.44626 13121 ft 328 kts 305°
2026-05-05 20:27 49.65749 20.41969 12976 ft 318 kts 305°
2026-05-05 20:27 49.67155 20.39358 12750 ft 313 kts 305°
2026-05-05 20:27 49.68537 20.36791 12433 ft 310 kts 306°
2026-05-05 20:28 49.70187 20.34584 12013 ft 319 kts 327°
2026-05-05 20:28 49.72299 20.33452 11573 ft 327 kts 349°
2026-05-05 20:28 49.74563 20.33015 11156 ft 328 kts 351°
2026-05-05 20:28 49.76842 20.32605 10737 ft 330 kts 351°
2026-05-05 20:29 49.79092 20.32208 10331 ft 330 kts 351°
2026-05-05 20:29 49.81368 20.31751 9936 ft 329 kts 348°
2026-05-05 20:29 49.83618 20.31152 9505 ft 328 kts 346°
2026-05-05 20:29 49.85853 20.30475 9063 ft 326 kts 345°
2026-05-05 20:30 49.88070 20.29778 8632 ft 325 kts 345°
2026-05-05 20:30 49.90282 20.29087 8200 ft 324 kts 345°
2026-05-05 20:30 49.92487 20.28410 7758 ft 322 kts 345°
2026-05-05 20:30 49.94652 20.27646 7341 ft 317 kts 336°
2026-05-05 20:31 49.96612 20.26173 6921 ft 307 kts 323°
2026-05-05 20:31 49.98309 20.24337 6516 ft 291 kts 317°
2026-05-05 20:31 49.99868 20.22441 6045 ft 280 kts 315°
2026-05-05 20:31 50.01398 20.20576 5414 ft 277 kts 316°
2026-05-05 20:32 50.02928 20.18786 4961 ft 269 kts 317°
2026-05-05 20:32 50.04401 20.17150 4731 ft 251 kts 319°
2026-05-05 20:32 50.05811 20.15631 4351 ft 244 kts 319°
2026-05-05 20:32 50.07171 20.14194 4189 ft 228 kts 319°
2026-05-05 20:33 50.08443 20.12862 4091 ft 213 kts 318°
2026-05-05 20:33 50.09619 20.11636 4018 ft 194 kts 317°
2026-05-05 20:33 50.10654 20.10474 4023 ft 175 kts 306°
2026-05-05 20:33 50.11325 20.09025 3999 ft 153 kts 285°
2026-05-05 20:34 50.11605 20.07535 3996 ft 137 kts 268°
2026-05-05 20:34 50.11576 20.06127 3971 ft 128 kts 251°
2026-05-05 20:34 50.11391 20.04780 3864 ft 127 kts 251°
2026-05-05 20:34 50.11205 20.03412 3727 ft 127 kts 251°
2026-05-05 20:35 50.11023 20.02080 3576 ft 127 kts 251°
2026-05-05 20:35 50.10839 20.00730 3425 ft 127 kts 251°
2026-05-05 20:35 50.10654 19.99383 3251 ft 128 kts 251°
2026-05-05 20:35 50.10469 19.98028 3088 ft 128 kts 251°
2026-05-05 20:36 50.10283 19.96672 2922 ft 129 kts 251°
2026-05-05 20:36 50.10094 19.95299 2751 ft 129 kts 250°
2026-05-05 20:36 50.09907 19.93936 2580 ft 129 kts 251°
2026-05-05 20:36 50.09715 19.92541 2410 ft 134 kts 251°
2026-05-05 20:37 50.09519 19.91116 2229 ft 136 kts 252°
2026-05-05 20:37 50.09319 19.89665 2047 ft 137 kts 253°
2026-05-05 20:37 50.09118 19.88210 1865 ft 138 kts 254°
2026-05-05 20:37 50.08915 19.86736 1686 ft 140 kts 255°
2026-05-05 20:38 50.08709 19.85242 1494 ft 141 kts 256°
2026-05-05 20:38 50.08503 19.83752 1309 ft 141 kts 256°
2026-05-05 20:38 50.08278 19.82258 1112 ft 142 kts 258°
2026-05-05 20:38 50.08081 19.80758 946 ft 142 kts 260°
2026-05-05 20:39 50.07880 19.79271 793 ft 133 kts 258°
2026-05-05 20:39 50.07720 19.78122 793 ft 85 kts 257°
2026-05-05 20:39 50.07631 19.77497 796 ft 47 kts 258°
2026-05-05 20:39 50.07572 19.77043 801 ft 36 kts 257°
2026-05-05 20:40 50.07459 19.76849 800 ft 26 kts 173°
2026-05-05 20:40 50.07314 19.76929 799 ft 20 kts 125°
2026-05-05 20:40 50.07330 19.77152 798 ft 23 kts 75°
2026-05-05 20:40 50.07375 19.77452 797 ft 32 kts 77°
2026-05-05 20:41 50.07421 19.77795 796 ft 33 kts 78°
2026-05-05 20:41 50.07470 19.78146 795 ft 34 kts 77°
2026-05-05 20:41 50.07520 19.78506 794 ft 34 kts 77°
2026-05-05 20:41 50.07569 19.78862 793 ft 34 kts 78°
2026-05-05 20:42 50.07616 19.79220 792 ft 34 kts 76°
2026-05-05 20:42 50.07666 19.79574 791 ft 32 kts 81°
2026-05-05 20:42 50.07591 19.79810 790 ft 23 kts 125°
2026-05-05 20:42 50.07484 19.79935 790 ft 13 kts 174°
2026-05-05 20:43 50.07399 19.79987 790 ft 14 kts 121°
2026-05-05 20:43 50.07399 19.80067 791 ft 0 kts 82°
2026-05-05 20:43 50.07399 19.80068 791 ft 0 kts 82°
2026-05-05 20:43 50.07398 19.80069 791 ft 0 kts 87°
2026-05-05 20:44 50.07366 19.80088 790 ft 6 kts 125°
2026-05-05 20:44 50.07326 19.80118 790 ft 7 kts 167°
2026-05-05 20:44 50.07318 19.80124 790 ft 0 kts 155°